Tracking 18665 objects as of 24-June-2017
HD Live streaming from Space Station
objects crossing your sky now

ABS 3

Track ABS 3 now!
ABS 3 is classified as:


NORAD ID: 24901
Int'l Code: 1997-042A
Perigee: 35,767.2 km
Apogee: 35,822.2 km
Inclination: 4.9 °
Period: 1,436.1 minutes
Semi major axis: 42165 km
RCS: 10 m2 (large)
Launch date: August 19, 1997
Source: People's Republic of China (PRC)
Launch site: Xichang Space Center, China (XSC)

Most powerful telecommunications satellite in service in the Asia-Pacific region; 30 C-band, 24 Ku-band transponders; 190 high fidelity channels and 50,000 simultaneous telephone links.
Your satellite tracking list
Your tracking list is empty





NASA's NSSDC Master Catalog

Two Line Element Set (TLE):
1 24901U 97042A   17174.80624882 -.00000204 +00000-0 +00000-0 0  9993
2 24901 004.9011 063.2395 0006519 009.5003 214.8954 01.00268346072630
Source of the keplerian elements: AFSPC